TimeCDT,TemperatureF,Dew PointF,Humidity,Sea Level PressureIn,VisibilityMPH,Wind Direction,Wind SpeedMPH,Gust SpeedMPH,PrecipitationIn,Events,Conditions,WindDirDegrees,DateUTC
12:15 AM,73.6,70.2,89,30.01,10.0,SE,6.9,-,N/A,,Scattered Clouds,130,2012-10-10 05:15:00
12:35 AM,73.9,70.5,89,30.01,10.0,SE,6.9,-,N/A,,Overcast,140,2012-10-10 05:35:00
12:55 AM,74.5,70.7,88,30.00,10.0,SE,8.1,-,N/A,,Overcast,140,2012-10-10 05:55:00
1:15 AM,74.7,70.9,88,30.00,10.0,SE,10.4,16.1,N/A,,Overcast,140,2012-10-10 06:15:00
1:35 AM,75.0,71.4,89,29.99,10.0,SE,12.7,17.3,N/A,,Overcast,140,2012-10-10 06:35:00
1:55 AM,75.2,71.8,89,29.99,7.0,SE,12.7,18.4,N/A,,Overcast,140,2012-10-10 06:55:00
2:15 AM,75.2,72.0,90,29.99,7.0,SE,11.5,-,N/A,,Overcast,140,2012-10-10 07:15:00
2:35 AM,75.2,72.1,90,29.98,7.0,SE,10.4,18.4,N/A,,Overcast,140,2012-10-10 07:35:00
2:55 AM,75.2,72.5,91,29.98,7.0,SE,12.7,-,N/A,,Overcast,140,2012-10-10 07:55:00
3:15 AM,75.2,72.7,92,29.98,7.0,SE,9.2,-,N/A,,Overcast,140,2012-10-10 08:15:00
3:35 AM,75.4,72.7,91,29.98,7.0,SSE,11.5,-,N/A,,Overcast,150,2012-10-10 08:35:00
3:55 AM,75.2,72.7,92,29.96,7.0,SSE,12.7,17.3,N/A,,Overcast,150,2012-10-10 08:55:00
4:15 AM,75.2,72.7,92,29.96,7.0,SSE,8.1,-,N/A,,Overcast,150,2012-10-10 09:15:00
4:35 AM,75.2,72.9,92,29.96,7.0,SE,11.5,16.1,N/A,,Overcast,140,2012-10-10 09:35:00
4:55 AM,75.2,73.0,93,29.96,7.0,SSE,10.4,16.1,N/A,,Overcast,150,2012-10-10 09:55:00
5:15 AM,75.2,72.9,92,29.97,7.0,SSE,11.5,-,N/A,,Overcast,150,2012-10-10 10:15:00
5:35 AM,75.2,72.9,92,29.98,10.0,SSE,9.2,-,N/A,,Overcast,160,2012-10-10 10:35:00
5:55 AM,75.4,72.9,92,29.98,10.0,South,11.5,-,N/A,,Overcast,170,2012-10-10 10:55:00
6:15 AM,75.2,72.7,92,29.99,10.0,South,8.1,-,N/A,,Overcast,170,2012-10-10 11:15:00
6:35 AM,75.2,72.5,91,30.00,10.0,SSE,8.1,-,N/A,,Overcast,160,2012-10-10 11:35:00
6:55 AM,75.2,72.1,90,30.01,10.0,SSE,9.2,-,N/A,,Overcast,150,2012-10-10 11:55:00
7:15 AM,74.7,72.0,91,30.01,10.0,SSE,4.6,-,N/A,,Mostly Cloudy,150,2012-10-10 12:15:00
7:35 AM,74.1,71.6,92,30.02,7.0,SE,3.5,-,N/A,,Scattered Clouds,140,2012-10-10 12:35:00
7:55 AM,73.4,71.4,93,30.02,7.0,ESE,3.5,-,N/A,,Scattered Clouds,120,2012-10-10 12:55:00
8:35 AM,74.3,72.0,92,30.04,10.0,ESE,4.6,-,N/A,,Mostly Cloudy,110,2012-10-10 13:35:00
8:55 AM,75.0,72.1,91,30.05,10.0,East,5.8,-,N/A,,Overcast,90,2012-10-10 13:55:00
9:15 AM,76.1,72.3,88,30.06,10.0,ESE,6.9,-,N/A,,Overcast,110,2012-10-10 14:15:00
9:35 AM,76.6,72.1,86,30.06,10.0,SE,5.8,-,N/A,,Overcast,130,2012-10-10 14:35:00
9:55 AM,78.4,72.3,81,30.06,10.0,ESE,6.9,-,N/A,,Mostly Cloudy,120,2012-10-10 14:55:00
10:15 AM,79.2,72.0,78,30.07,10.0,ESE,10.4,-,N/A,,Mostly Cloudy,120,2012-10-10 15:15:00
10:35 AM,80.4,71.6,74,30.08,10.0,ESE,10.4,-,N/A,,Mostly Cloudy,120,2012-10-10 15:35:00
10:55 AM,81.1,71.6,73,30.08,10.0,SE,6.9,-,N/A,,Overcast,130,2012-10-10 15:55:00
11:15 AM,82.4,71.2,69,30.08,10.0,SE,9.2,17.3,N/A,,Mostly Cloudy,130,2012-10-10 16:15:00
11:55 AM,83.7,70.9,65,30.08,10.0,ESE,9.2,-,N/A,,Mostly Cloudy,110,2012-10-10 16:55:00
12:15 PM,84.4,70.7,63,30.07,10.0,SE,10.4,-,N/A,,Mostly Cloudy,140,2012-10-10 17:15:00
12:35 PM,85.8,70.5,60,30.06,10.0,ESE,9.2,-,N/A,,Mostly Cloudy,120,2012-10-10 17:35:00
12:55 PM,86.7,70.3,58,30.06,10.0,East,6.9,18.4,N/A,,Scattered Clouds,100,2012-10-10 17:55:00
1:15 PM,87.3,68.7,54,30.04,10.0,SE,9.2,-,N/A,,Mostly Cloudy,130,2012-10-10 18:15:00
1:35 PM,88.2,68.7,52,30.03,10.0,ESE,11.5,-,N/A,,Scattered Clouds,110,2012-10-10 18:35:00
1:55 PM,88.7,68.7,51,30.02,10.0,SE,9.2,-,N/A,,Scattered Clouds,130,2012-10-10 18:55:00
2:15 PM,89.2,67.8,49,30.00,10.0,East,8.1,-,N/A,,Scattered Clouds,100,2012-10-10 19:15:00
2:35 PM,89.6,67.1,47,29.99,10.0,ESE,10.4,16.1,N/A,,Scattered Clouds,110,2012-10-10 19:35:00
2:55 PM,90.1,66.2,45,29.98,10.0,ESE,11.5,-,N/A,,Mostly Cloudy,110,2012-10-10 19:55:00
3:15 PM,90.3,65.7,44,29.97,10.0,SE,8.1,-,N/A,,Scattered Clouds,130,2012-10-10 20:15:00
3:35 PM,91.0,65.3,42,29.96,10.0,SE,11.5,-,N/A,,Scattered Clouds,140,2012-10-10 20:35:00
3:55 PM,92.1,64.9,40,29.95,10.0,ESE,8.1,-,N/A,,Scattered Clouds,110,2012-10-10 20:55:00
4:15 PM,92.1,64.6,40,29.95,10.0,ESE,9.2,-,N/A,,Mostly Cloudy,110,2012-10-10 21:15:00
4:35 PM,93.4,63.5,37,29.95,10.0,East,10.4,-,N/A,,Mostly Cloudy,90,2012-10-10 21:35:00
4:55 PM,92.8,64.0,38,29.95,10.0,ESE,8.1,16.1,N/A,,Scattered Clouds,120,2012-10-10 21:55:00
5:15 PM,92.5,64.0,39,29.94,10.0,SE,10.4,-,N/A,,Clear,130,2012-10-10 22:15:00
5:35 PM,93.2,64.2,38,29.94,10.0,ENE,16.1,-,N/A,,Scattered Clouds,70,2012-10-10 22:35:00
5:55 PM,91.8,66.6,43,29.94,10.0,ENE,15.0,19.6,N/A,,Scattered Clouds,70,2012-10-10 22:55:00
6:15 PM,89.4,69.1,51,29.95,10.0,East,17.3,20.7,N/A,,Scattered Clouds,80,2012-10-10 23:15:00
6:35 PM,88.0,70.2,55,29.96,10.0,ENE,18.4,24.2,N/A,,Scattered Clouds,70,2012-10-10 23:35:00
6:55 PM,86.2,71.1,60,29.98,10.0,East,19.6,29.9,N/A,,Scattered Clouds,90,2012-10-10 23:55:00
7:15 PM,81.5,72.9,75,29.99,10.0,East,10.4,-,N/A,,Mostly Cloudy,100,2012-10-11 00:15:00
7:35 PM,79.3,73.4,82,30.00,10.0,East,12.7,-,N/A,Rain,Light Rain,90,2012-10-11 00:35:00
7:55 PM,77.7,72.9,85,30.01,10.0,East,12.7,-,N/A,,Mostly Cloudy,100,2012-10-11 00:55:00
8:15 PM,77.7,72.7,84,30.02,10.0,East,12.7,16.1,N/A,,Mostly Cloudy,90,2012-10-11 01:15:00
8:35 PM,78.1,73.0,84,30.03,10.0,East,11.5,16.1,N/A,,Overcast,90,2012-10-11 01:35:00
8:55 PM,78.4,73.6,85,30.04,7.0,ESE,11.5,-,0.02,Rain,Heavy Rain,110,2012-10-11 01:55:00
9:15 PM,78.1,74.3,88,30.04,10.0,East,11.5,-,0.01,,Mostly Cloudy,100,2012-10-11 02:15:00
9:35 PM,78.1,74.5,89,30.05,10.0,East,13.8,-,0.01,,Overcast,90,2012-10-11 02:35:00
9:55 PM,78.1,74.7,89,30.05,10.0,East,12.7,18.4,0.01,,Mostly Cloudy,100,2012-10-11 02:55:00
10:15 PM,77.9,74.7,90,30.06,10.0,East,13.8,18.4,N/A,,Mostly Cloudy,90,2012-10-11 03:15:00
10:35 PM,78.1,74.8,90,30.06,10.0,East,11.5,-,N/A,,Overcast,100,2012-10-11 03:35:00
10:55 PM,78.1,74.8,90,30.06,10.0,East,9.2,-,N/A,,Overcast,100,2012-10-11 03:55:00
11:15 PM,77.9,74.8,90,30.06,10.0,East,10.4,-,N/A,,Overcast,100,2012-10-11 04:15:00
11:35 PM,77.7,74.7,90,30.07,10.0,East,9.2,-,N/A,,Mostly Cloudy,100,2012-10-11 04:35:00
11:55 PM,77.4,74.7,91,30.06,10.0,East,9.2,-,N/A,,Mostly Cloudy,100,2012-10-11 04:55:00